Location: Leipzig
(51.3392°N, 12.3528°E)
Time: 15:09:33
(UTC+01:00)

ISS - Pass Details

Date: 12 November 2017
Orbit: 402 x 407 km, 51.6° (Epoch: 21 November)

Event Time Altitude Azimuth Distance (km) Brightness Sun altitude
Exits shadow 05:52:32 28° 265° (W) 781 -3.0 -14.1°
Maximum altitude 05:53:55 53° 202° (SSW) 504 -3.5 -13.9°
Drops below altitude 10° 05:57:06 10° 124° (SE) 1,453 0.1 -13.4°
Sets 05:59:12 0° 120° (ESE) 2,310 1.6 -13.1°
